Hourly Weather Ruda

Today, 16 April, Friday

Time Temperature Precipitation Wind Pressure Humidity
00:00 +7°C° 0 mm 6 mps 746 mmHg 91%
01:00 +7°C° 0 mm 6 mps 746 mmHg 91%
02:00 +7°C° 0 mm 6 mps 746 mmHg 90%
03:00 +5°C° 0.1 mm 6 mps 746 mmHg 90%
04:00 +5°C° 0.1 mm 6 mps 746 mmHg 90%
05:00 +5°C° 0.1 mm 6 mps 745 mmHg 90%
06:00 +5°C° 0.5 mm 6 mps 746 mmHg 90%
07:00 +7°C° 0.5 mm 6 mps 746 mmHg 90%
08:00 +7°C° 0.5 mm 5 mps 746 mmHg 90%
09:00 +8°C° 0 mm 5 mps 746 mmHg 87%
10:00 +9°C° 0 mm 5 mps 747 mmHg 85%
11:00 +9°C° 0 mm 5 mps 747 mmHg 83%
12:00 +10°C° 0.1 mm 6 mps 747 mmHg 82%
13:00 +10°C° 0.1 mm 6 mps 747 mmHg 81%
14:00 +10°C° 0.1 mm 6 mps 747 mmHg 80%
15:00 +10°C° 0.4 mm 6 mps 747 mmHg 81%
16:00 +10°C° 0.4 mm 6 mps 747 mmHg 83%
17:00 +10°C° 0.4 mm 6 mps 747 mmHg 84%
18:00 +10°C° 1.8 mm 6 mps 747 mmHg 87%
19:00 +9°C° 1.8 mm 5 mps 747 mmHg 90%
20:00 +8°C° 1.8 mm 4 mps 748 mmHg 92%
21:00 +8°C° 1.6 mm 4 mps 748 mmHg 92%
22:00 +8°C° 1.6 mm 4 mps 748 mmHg 92%
23:00 +8°C° 1.6 mm 3 mps 748 mmHg 93%

Tomorrow, 17 April, Saturday

Time Temperature Precipitation Wind Pressure Humidity
00:00 +8°C° 0.1 mm 3 mps 748 mmHg 93%
01:00 +8°C° 0.1 mm 3 mps 748 mmHg 94%
02:00 +8°C° 0.1 mm 3 mps 748 mmHg 94%
03:00 +8°C° 0.1 mm 3 mps 748 mmHg 95%
04:00 +8°C° 0.1 mm 3 mps 749 mmHg 95%
05:00 +7°C° 0.1 mm 3 mps 749 mmHg 96%
06:00 +8°C° 0 mm 3 mps 749 mmHg 92%
07:00 +9°C° 0 mm 3 mps 749 mmHg 88%
08:00 +10°C° 0 mm 4 mps 750 mmHg 85%
09:00 +11°C° 0 mm 4 mps 750 mmHg 78%
10:00 +12°C° 0 mm 4 mps 750 mmHg 71%
11:00 +13°C° 0 mm 4 mps 750 mmHg 64%
12:00 +13°C° 0 mm 4 mps 750 mmHg 64%
13:00 +13°C° 0 mm 4 mps 750 mmHg 65%
14:00 +13°C° 0 mm 5 mps 750 mmHg 66%
15:00 +12°C° 0.7 mm 4 mps 750 mmHg 72%
16:00 +12°C° 0.7 mm 4 mps 750 mmHg 78%
17:00 +11°C° 0.7 mm 3 mps 750 mmHg 85%
18:00 +11°C° 0.4 mm 3 mps 750 mmHg 83%
19:00 +11°C° 0.4 mm 4 mps 750 mmHg 82%
20:00 +10°C° 0.4 mm 5 mps 750 mmHg 81%
21:00 +9°C° 0 mm 5 mps 750 mmHg 82%
22:00 +9°C° 0 mm 5 mps 750 mmHg 82%
23:00 +8°C° 0 mm 5 mps 750 mmHg 82%

Day after tomorrow, 18 April, Sunday

Time Temperature Precipitation Wind Pressure Humidity
00:00 +7°C° 0 mm 5 mps 749 mmHg 82%
01:00 +7°C° 0 mm 5 mps 749 mmHg 82%
02:00 +6°C° 0 mm 5 mps 749 mmHg 83%
03:00 +6°C° 0 mm 5 mps 750 mmHg 82%
04:00 +5°C° 0 mm 5 mps 750 mmHg 82%
05:00 +4°C° 0 mm 4 mps 750 mmHg 81%
06:00 +5°C° 0 mm 5 mps 750 mmHg 78%
07:00 +6°C° 0 mm 5 mps 750 mmHg 76%
08:00 +7°C° 0 mm 5 mps 750 mmHg 73%
09:00 +7°C° 0 mm 5 mps 750 mmHg 71%
10:00 +8°C° 0 mm 5 mps 750 mmHg 70%
11:00 +8°C° 0 mm 5 mps 751 mmHg 68%
12:00 +8°C° 0 mm 5 mps 751 mmHg 69%
13:00 +8°C° 0 mm 5 mps 751 mmHg 71%
14:00 +8°C° 0 mm 5 mps 751 mmHg 72%
15:00 +7°C° 0 mm 5 mps 751 mmHg 74%
16:00 +7°C° 0 mm 5 mps 751 mmHg 77%
17:00 +6°C° 0 mm 4 mps 752 mmHg 79%
18:00 +6°C° 0 mm 4 mps 752 mmHg 81%
19:00 +5°C° 0 mm 4 mps 752 mmHg 83%
20:00 +5°C° 0 mm 4 mps 752 mmHg 85%
21:00 +5°C° 0 mm 3 mps 752 mmHg 86%
22:00 +5°C° 0 mm 3 mps 752 mmHg 86%
23:00 +4°C° 0 mm 3 mps 752 mmHg 86%

19 April, Monday

Time Temperature Precipitation Wind Pressure Humidity
00:00 +4°C° 0 mm 3 mps 752 mmHg 88%
01:00 +3°C° 0 mm 3 mps 751 mmHg 90%
02:00 +3°C° 0 mm 3 mps 751 mmHg 92%
03:00 +3°C° 0 mm 4 mps 751 mmHg 91%
04:00 +3°C° 0 mm 4 mps 751 mmHg 89%
05:00 +4°C° 0 mm 4 mps 751 mmHg 88%
06:00 +4°C° 0 mm 4 mps 751 mmHg 88%
07:00 +4°C° 0 mm 4 mps 751 mmHg 87%
08:00 +5°C° 0 mm 4 mps 751 mmHg 86%
09:00 +5°C° 0 mm 4 mps 751 mmHg 83%
10:00 +6°C° 0 mm 4 mps 751 mmHg 80%
11:00 +6°C° 0 mm 5 mps 751 mmHg 77%
12:00 +7°C° 0 mm 5 mps 751 mmHg 76%
13:00 +7°C° 0 mm 5 mps 751 mmHg 75%
14:00 +8°C° 0 mm 5 mps 750 mmHg 73%
15:00 +8°C° 0.1 mm 5 mps 750 mmHg 74%
16:00 +8°C° 0.1 mm 5 mps 750 mmHg 74%
17:00 +8°C° 0.1 mm 5 mps 749 mmHg 75%
18:00 +7°C° 0 mm 5 mps 749 mmHg 79%
19:00 +6°C° 0 mm 5 mps 749 mmHg 83%
20:00 +5°C° 0 mm 5 mps 749 mmHg 88%
21:00 +5°C° 0 mm 5 mps 749 mmHg 88%
22:00 +5°C° 0 mm 5 mps 748 mmHg 89%
23:00 +5°C° 0 mm 5 mps 748 mmHg 89%

20 April, Tuesday

Time Temperature Precipitation Wind Pressure Humidity
00:00 +5°C° 0.1 mm 5 mps 747 mmHg 90%
01:00 +5°C° 0.1 mm 5 mps 747 mmHg 91%
02:00 +3°C° 0.1 mm 5 mps 746 mmHg 92%
03:00 +5°C° 0.7 mm 5 mps 746 mmHg 92%
04:00 +5°C° 0.7 mm 5 mps 745 mmHg 92%
05:00 +5°C° 0.7 mm 5 mps 745 mmHg 92%
06:00 +4°C° 0.6 mm 6 mps 745 mmHg 92%
07:00 +4°C° 0.6 mm 6 mps 744 mmHg 92%
08:00 +4°C° 0.6 mm 6 mps 744 mmHg 92%
09:00 +4°C° 0.1 mm 6 mps 744 mmHg 89%
10:00 +5°C° 0.1 mm 6 mps 743 mmHg 86%
11:00 +5°C° 0.1 mm 6 mps 743 mmHg 84%
12:00 +5°C° 0 mm 6 mps 742 mmHg 82%
13:00 +6°C° 0 mm 7 mps 741 mmHg 81%
14:00 +6°C° 0 mm 7 mps 741 mmHg 79%
15:00 +5°C° 0.4 mm 7 mps 740 mmHg 82%
16:00 +4°C° 0.4 mm 7 mps 739 mmHg 85%
17:00 +4°C° 0.4 mm 8 mps 738 mmHg 88%
18:00 +3°C° 1.6 mm 7 mps 737 mmHg 90%
19:00 +3°C° 1.6 mm 7 mps 737 mmHg 93%
20:00 +2°C° 1.6 mm 7 mps 736 mmHg 96%
21:00 +2°C° 0.9 mm 7 mps 736 mmHg 96%
22:00 +1°C° 0.9 mm 6 mps 735 mmHg 96%
23:00 +1°C° 0.9 mm 6 mps 735 mmHg 96%

21 April, Wednesday

Time Temperature Precipitation Wind Pressure Humidity
00:00 +1°C° 0.3 mm 5 mps 734 mmHg 96%
01:00 +1°C° 0.3 mm 5 mps 734 mmHg 96%
02:00 0°C° 0.3 mm 4 mps 734 mmHg 97%
03:00 0°C° 0.3 mm 4 mps 733 mmHg 97%
04:00 +1°C° 0.3 mm 4 mps 733 mmHg 97%
05:00 +1°C° 0.3 mm 4 mps 733 mmHg 97%
06:00 +1°C° 0.6 mm 4 mps 733 mmHg 97%
07:00 +1°C° 0.6 mm 4 mps 733 mmHg 97%
08:00 +1°C° 0.6 mm 4 mps 733 mmHg 96%
09:00 +1°C° 0.6 mm 4 mps 733 mmHg 96%
10:00 +1°C° 0.6 mm 4 mps 733 mmHg 96%
11:00 +1°C° 0.6 mm 4 mps 733 mmHg 96%
12:00 +1°C° 0.5 mm 5 mps 734 mmHg 96%
13:00 +1°C° 0.5 mm 5 mps 734 mmHg 96%
14:00 +1°C° 0.5 mm 5 mps 735 mmHg 96%
15:00 +1°C° 0.3 mm 5 mps 735 mmHg 96%
16:00 +1°C° 0.3 mm 5 mps 736 mmHg 96%
17:00 +1°C° 0.3 mm 5 mps 737 mmHg 96%
18:00 +2°C° 0.2 mm 5 mps 737 mmHg 96%
19:00 +2°C° 0.2 mm 5 mps 738 mmHg 97%
20:00 +2°C° 0.2 mm 5 mps 739 mmHg 97%
21:00 +2°C° 0 mm 5 mps 739 mmHg 96%
22:00 +3°C° 0 mm 4 mps 740 mmHg 95%
23:00 +3°C° 0 mm 4 mps 740 mmHg 94%
Show more